Weather History for Selawik, AK

Change the Weather History Date:

Friday, December 21, 2012

  Actual Average Record
Temperature  
Mean Temperature -10 °F -  
Max Temperature -5 °F 0 °F 28 °F (2000)
Min Temperature -14 °F -9 °F -43 °F (2007)
Degree Days  
Heating Degree Days 74    
Moisture  
Dew Point -20 °F    
Average Humidity 59    
Maximum Humidity 84    
Minimum Humidity 32    
Precipitation  
Precipitation 0.00 in - - ()
Sea Level Pressure  
Sea Level Pressure 30.47 in    
Wind  
Wind Speed 21 mph (ENE)    
Max Wind Speed 24 mph    
Max Gust Speed 29 mph    
Visibility 10 miles    
Events      
Averages and records for this station are not official NWS values.
T = Trace of Precipitation, MM = Missing Value Source: NWS Daily Summary

Daily Weather History Graph

Daily Weather History Graph

Search for Another Location

Airport:

Trip Planner

Search our weather history database for the weather conditions in past years. The results will help you decide how hot, cold, wet, or windy it might be!

Date:

Astronomy

Dec. 21, 2012 Rise Set
Actual Time 12:34 PM AKST 2:42 PM AKST
Civil Twilight 10:40 AM AKST 4:36 PM AKST
Nautical Twilight 9:20 AM AKST 5:56 PM AKST
Astronomical Twilight 8:13 AM AKST 7:03 PM AKST
Moon 1:03 PM AKST (12/21) 3:54 AM AKST (12/21)
Length of Visible Light 5h 55m
Length of Day
2h 07m
Waxing Gibbous, 66% of the Moon is Illuminated
Dec 21
Waxing Gibbous
Dec 28
Full
Jan 4
Last Quarter
Jan 11
New
Jan 18
First Quarter

Hourly Weather History & Observations

Time (AKST) Temp. Windchill Dew Point Humidity Pressure Visibility Wind Dir Wind Speed Gust Speed Precip Events Conditions
12:16 AM -14.8 °F -41.2 °F -23.8 °F 64% 30.59 in 10.0 mi ENE 19.6 mph - N/A   Clear
12:36 AM -14.8 °F -39.8 °F -25.6 °F 58% 30.60 in 10.0 mi ENE 17.3 mph - N/A   Clear
12:56 AM -14.8 °F -42.9 °F -25.6 °F 58% 30.58 in 10.0 mi East 23.0 mph 27.6 mph N/A   Clear
1:16 AM -14.8 °F -42.4 °F -23.8 °F 64% 30.58 in 10.0 mi East 21.9 mph - N/A   Clear
1:36 AM -14.8 °F -41.2 °F -23.8 °F 64% 30.58 in 10.0 mi ENE 19.6 mph 24.2 mph N/A   Clear
1:56 AM -14.8 °F -41.2 °F -25.6 °F 58% 30.57 in 10.0 mi ENE 19.6 mph - N/A   Clear
2:16 AM -14.8 °F -42.4 °F -22.0 °F 70% 30.57 in 10.0 mi ENE 21.9 mph - N/A   Clear
2:36 AM -14.8 °F -42.4 °F -25.6 °F 58% 30.56 in 10.0 mi ENE 21.9 mph - N/A   Clear
2:56 AM -14.8 °F -41.8 °F -20.2 °F 77% 30.56 in 10.0 mi ENE 20.7 mph - N/A   Clear
3:16 AM -14.8 °F -41.2 °F -25.6 °F 58% 30.56 in 10.0 mi ENE 19.6 mph 25.3 mph N/A   Clear
3:36 AM -13.0 °F -40.0 °F -18.4 °F 77% 30.56 in 10.0 mi ENE 21.9 mph - N/A   Partly Cloudy
3:56 AM -13.0 °F -41.1 °F -27.4 °F 49% 30.55 in 10.0 mi East 24.2 mph - N/A   Clear
4:16 AM -11.2 °F -37.6 °F - N/A% 30.54 in 10.0 mi ENE 21.9 mph 26.5 mph N/A   Clear
4:36 AM -11.2 °F -37.6 °F - N/A% 30.54 in 10.0 mi East 21.9 mph - N/A   Partly Cloudy
4:56 AM -11.2 °F -37.6 °F - N/A% 30.53 in 10.0 mi East 21.9 mph - N/A   Scattered Clouds
5:16 AM -11.2 °F -35.8 °F - N/A% 30.54 in 10.0 mi ENE 18.4 mph - N/A   Scattered Clouds
5:36 AM -9.4 °F -35.2 °F -29.2 °F 37% 30.54 in 10.0 mi ENE 21.9 mph 26.5 mph N/A   Partly Cloudy
5:56 AM -9.4 °F -35.2 °F -25.6 °F 45% 30.53 in 10.0 mi ENE 21.9 mph - N/A   Mostly Cloudy
6:16 AM -9.4 °F -35.2 °F -22.0 °F 54% 30.53 in 10.0 mi ENE 21.9 mph - N/A   Overcast
6:36 AM -7.6 °F -33.4 °F -18.4 °F 59% 30.52 in 10.0 mi East 23.0 mph - N/A   Mostly Cloudy
6:56 AM -7.6 °F -32.9 °F -18.4 °F 59% 30.52 in 10.0 mi East 21.9 mph - N/A   Overcast
7:16 AM -7.6 °F -31.7 °F -16.6 °F 65% 30.52 in 10.0 mi East 19.6 mph - N/A   Overcast
7:36 AM -7.6 °F -32.3 °F -16.6 °F 65% 30.51 in 10.0 mi ENE 20.7 mph - N/A   Overcast
7:56 AM -7.6 °F -32.9 °F -14.8 °F 71% 30.51 in 10.0 mi ENE 21.9 mph 27.6 mph N/A   Overcast
8:16 AM -7.6 °F -32.9 °F -16.6 °F 65% 30.50 in 10.0 mi ENE 21.9 mph - N/A   Overcast
8:36 AM -7.6 °F -33.4 °F -14.8 °F 71% 30.50 in 10.0 mi ENE 23.0 mph 28.8 mph N/A   Overcast
8:56 AM -7.6 °F -32.3 °F -14.8 °F 71% 30.49 in 10.0 mi ENE 20.7 mph - N/A   Overcast
9:16 AM -5.8 °F -31.0 °F -20.2 °F 50% 30.49 in 10.0 mi ENE 23.0 mph - N/A   Overcast
9:36 AM -5.8 °F -31.0 °F - N/A% 30.49 in 10.0 mi ENE 23.0 mph - N/A   Overcast
9:56 AM - - - N/A% - 10.0 mi North - - N/A   Overcast
10:16 AM -5.8 °F -29.4 °F -29.2 °F 32% 30.49 in 10.0 mi ENE 19.6 mph - N/A   Overcast
10:36 AM -5.8 °F -28.8 °F -27.4 °F 35% 30.49 in 10.0 mi ENE 18.4 mph - N/A   Overcast
10:56 AM -5.8 °F -29.4 °F -27.4 °F 35% 30.48 in 10.0 mi ENE 19.6 mph - N/A   Overcast
11:16 AM -7.6 °F -33.4 °F -23.8 °F 45% 30.48 in 10.0 mi ENE 23.0 mph - N/A   Overcast
11:36 AM -7.6 °F -32.3 °F -20.2 °F 54% 30.48 in 10.0 mi ENE 20.7 mph - N/A   Mostly Cloudy
11:56 AM -7.6 °F -33.4 °F -20.2 °F 54% 30.47 in 10.0 mi ENE 23.0 mph - N/A   Partly Cloudy
12:16 PM -7.6 °F -31.7 °F -18.4 °F 59% 30.47 in 10.0 mi ENE 19.6 mph - N/A   Clear
12:36 PM -7.6 °F -32.9 °F -18.4 °F 59% 30.46 in 10.0 mi ENE 21.9 mph - N/A   Clear
12:56 PM -7.6 °F -31.7 °F -16.6 °F 65% 30.46 in 10.0 mi ENE 19.6 mph - N/A   Clear
1:16 PM -7.6 °F -32.9 °F -18.4 °F 59% 30.45 in 10.0 mi ENE 21.9 mph - N/A   Clear
1:36 PM -7.6 °F -32.3 °F -16.6 °F 65% 30.45 in 10.0 mi ENE 20.7 mph - N/A   Clear
1:56 PM -7.6 °F -33.9 °F -16.6 °F 65% 30.45 in 10.0 mi ENE 24.2 mph - N/A   Clear
2:16 PM -7.6 °F -33.4 °F -18.4 °F 59% 30.44 in 10.0 mi ENE 23.0 mph 27.6 mph N/A   Clear
2:36 PM -7.6 °F -32.9 °F -16.6 °F 65% 30.44 in 10.0 mi ENE 21.9 mph - N/A   Clear
2:56 PM -7.6 °F -33.4 °F -18.4 °F 59% 30.43 in 10.0 mi ENE 23.0 mph - N/A   Clear
3:16 PM -7.6 °F -32.9 °F -14.8 °F 71% 30.43 in 10.0 mi ENE 21.9 mph - N/A   Clear
3:36 PM -7.6 °F -32.9 °F -18.4 °F 59% 30.43 in 10.0 mi East 21.9 mph - N/A   Clear
3:56 PM -9.4 °F -34.1 °F -16.6 °F 71% 30.43 in 10.0 mi East 19.6 mph - N/A   Clear
4:16 PM -9.4 °F -34.1 °F -18.4 °F 65% 30.42 in 10.0 mi East 19.6 mph - N/A   Clear
4:36 PM -7.6 °F -32.3 °F -20.2 °F 54% 30.41 in 10.0 mi East 20.7 mph - N/A   Clear
4:56 PM -9.4 °F -35.2 °F -14.8 °F 77% 30.42 in 10.0 mi ENE 21.9 mph - N/A   Clear
5:16 PM -9.4 °F -34.7 °F -20.2 °F 59% 30.40 in 10.0 mi East 20.7 mph - N/A   Clear
5:36 PM -7.6 °F -32.9 °F -18.4 °F 59% 30.40 in 10.0 mi ENE 21.9 mph - N/A   Clear
5:56 PM -9.4 °F -34.1 °F -18.4 °F 65% 30.40 in 10.0 mi ENE 19.6 mph - N/A   Clear
6:16 PM -9.4 °F -34.7 °F -20.2 °F 59% 30.39 in 10.0 mi ENE 20.7 mph - N/A   Clear
6:36 PM -9.4 °F -33.5 °F -16.6 °F 71% 30.39 in 10.0 mi East 18.4 mph - N/A   Clear
6:56 PM -9.4 °F -34.7 °F -20.2 °F 59% 30.39 in 10.0 mi East 20.7 mph - N/A   Clear
7:16 PM -7.6 °F -32.3 °F -18.4 °F 59% 30.39 in 10.0 mi ENE 20.7 mph - N/A   Clear
7:36 PM -7.6 °F -31.1 °F -11.2 °F 84% 30.39 in 10.0 mi ENE 18.4 mph - N/A   Clear
7:56 PM -7.6 °F -31.7 °F - N/A% 30.39 in 10.0 mi ENE 19.6 mph - N/A   Clear
8:16 PM -7.6 °F -31.1 °F - N/A% 30.40 in 10.0 mi ENE 18.4 mph - N/A   Clear
8:36 PM -7.6 °F -31.1 °F - N/A% 30.40 in 10.0 mi ENE 18.4 mph - N/A   Clear
8:56 PM -7.6 °F -30.5 °F -29.2 °F 34% 30.39 in 10.0 mi ENE 17.3 mph - N/A   Clear
9:16 PM -7.6 °F -32.3 °F -25.6 °F 41% 30.40 in 10.0 mi ENE 20.7 mph - N/A   Clear
9:36 PM -5.8 °F -29.9 °F -20.2 °F 50% 30.39 in 10.0 mi ENE 20.7 mph - N/A   Clear
9:56 PM -5.8 °F -29.9 °F -20.2 °F 50% 30.39 in 10.0 mi ENE 20.7 mph - N/A   Clear
10:16 PM -5.8 °F -28.2 °F -16.6 °F 60% 30.39 in 10.0 mi East 17.3 mph - N/A   Clear
10:36 PM -7.6 °F -29.8 °F -16.6 °F 65% 30.40 in 10.0 mi East 16.1 mph - N/A   Clear
10:56 PM -7.6 °F -30.5 °F -20.2 °F 54% 30.41 in 10.0 mi East 17.3 mph - N/A   Clear
11:16 PM -7.6 °F -30.5 °F -18.4 °F 59% 30.41 in 10.0 mi ENE 17.3 mph - N/A   Clear
11:36 PM -7.6 °F -29.1 °F -18.4 °F 59% 30.41 in 10.0 mi ENE 15.0 mph - N/A   Clear
11:56 PM -7.6 °F -29.8 °F -14.8 °F 71% 30.40 in 10.0 mi East 16.1 mph - N/A   Clear